www.pogodaiklimat.ru

Погода и климат >> Архив погоды >> Россия >> Ямало-Ненецкий АО >> Имени Попова


АРХИВ ПОГОДЫ в Имени Попова

Время (UTC), дата Ветер
(напр.,м/с)
 
Видим.   Явления Облачность Т
(С)
Тd
(С)
f
(%)
Тe
(С)
Тes
(С)
Комфортность P
(гПа)
Po
(гПа)
Тmin
(С)
Tmax
(С)
R
(мм)
R24
(мм)
S
(см)
12 14.03 С 9-11
{11}
500 м сильн. снег {метель} 10/0 420 м
[As op]
-10.9 -12.5 88 -21 -21 995.2 994.4
15 14.03 С 7
{11}
4000 м слаб. снег {метель} 10/0
[As op]
-15.1 -17.1 85 -25 -25 998.1 997.4 -10.0 0.7
18 14.03 С 5 2000 м снег {метель} 10/0
[As trans]
-15.8 -17.9 84 -25 -25 1000.7 1000.0
21 14.03 С 5 20 км {снег} ясно -20.7 -22.9 82 -31 -31 опасность
обморожения
1003.4 1002.6
00 15.03 СЗ 5 20 км {снег} ясно -22.5 -25.0 80 -33 -33 опасность
обморожения
1005.7 1005.0
03 15.03 С 3 20 км 10/0
[Cc]
-22.0 -24.6 79 -30 -30 1007.4 1006.6 -24.0 0.0 45
06 15.03 З 2 20 км 9/0
[Cs]
-21.0 -23.8 78 -27 -26 1009.2 1008.4
09 15.03 ЮЗ 3 20 км 9/0
[Cs]
-19.0 -21.6 80 -26 -26 1010.3 1009.5
12 15.03 Ю 5 20 км 8/0
[Ac As]
-22.3 -25.0 79 -33 -33 опасность
обморожения
1011.0 1010.2
15 15.03 Ю 6 20 км {снег} 10/10 960 м
[Sc]
-15.8 -17.7 85 -26 -26 1010.8 1010.1 -15.8 0.0
18 15.03 Ю 5 200 м слаб. снег {туман} туман 10/0
[As trans]
-13.4 -15.1 87 -22 -22 1011.2 1010.5
21 15.03 Ю 4 4000 м слаб. снег {туман} 10/8 720 м
[Sc As trans]
-15.6 -17.6 85 -24 -24 1011.8 1011.0
00 16.03 Ю 4 4000 м слаб. снег {туман} 10/0 800 м
[As op]
-13.7 -15.6 86 -21 -21 1011.8 1011.0
03 16.03 Ю 5 2000 м снег 10/0 870 м
[As op]
-12.8 -14.5 87 -21 -21 1012.4 1011.7 -16.1 0.2 46
06 16.03 Ю 7 4000 м слаб. снег 10/0 420 м
[As op]
-10.8 -12.4 88 -20 -20 1012.9 1012.2
09 16.03 Ю 5 20 км {снег} 9/0
[Ac As]
-13.4 -15.2 86 -22 -21 1013.5 1012.7
12 16.03 Ю 7
{11}
20 км позёмок {снег} 9/0
[Ac As]
-14.4 -16.3 85 -25 -25 1013.7 1012.9
15 16.03 Ю 7 20 км позёмок 9/0
[Ac As Cs]
-19.1 -21.4 82 -31 -31 опасность
обморожения
1013.9 1013.1 -10.6 0.0
18 16.03 Ю 7 4000 м позёмок 10/0
[Ac trans Cs]
-19.2 -21.5 82 -31 -31 опасность
обморожения
1013.1 1012.4
21 16.03 Ю 8 4000 м позёмок 10/0
[Cs]
-17.0 -19.0 84 -29 -29 1012.6 1011.8
00 17.03 Ю 7
{10}
20 км {метель} 10/0
[As op]
-15.7 -17.7 85 -26 -26 1012.0 1011.3
03 17.03 Ю 8
{11}
10 км слаб. снег {метель} 10/0 540 м
[As op]
-14.3 -16.1 86 -25 -25 1011.3 1010.5 -19.4 0.0 46
06 17.03 Ю 7 2000 м снег {метель} 10/0 360 м
[As op]
-12.3 -14.0 87 -22 -22 1010.8 1010.1
09 17.03 Ю 6 1000 м сильн. снег {метель} 10/0 480 м
[As op]
-9.2 -10.5 90 -18 -18 1011.1 1010.4
12 17.03 ЮЗ 6 20 км {снег, метель} 10/10 240 м
[St]
-5.9 -6.8 93 -14 -14 1011.3 1010.6
15 17.03 Ю 5 20 км 10/10 270 м
[St]
-5.3 -6.1 94 -13 -13 1011.3 1010.5 -5.3 0.3
18 17.03 ЮЗ 5 4000 м слаб. снег 10/10 240 м
[Frnb Ns]
-4.0 -4.7 95 -11 -11 1011.3 1010.6
21 17.03 ЮЗ 8-10
{10}
500 м слаб. снег {туман} туман 10/10 210 м
[Frnb Ns]
-3.1 -3.6 96 -12 -12 1011.4 1010.7
00 18.03 ЮЗ 7
{10}
2000 м снег {туман} 10/10 240 м
[Frnb Ns]
-4.0 -4.6 96 -12 -12 1011.3 1010.6
03 18.03 ЮЗ 7
{10}
20 км позёмок {снег} 10/0
[Ac As Cs]
-5.7 -6.5 94 -14 -14 1010.8 1010.1 -5.7 0.2 45
06 18.03 ЮЗ 7
{10}
20 км позёмок {снег} 10/0
[Ac und]
-8.3 -9.5 91 -17 -17 1010.5 1009.8 -8.3
09 18.03 ЮЗ 7 20 км позёмок 10/0
[As trans Cs]
-8.0 -9.3 90 -17 -17 1010.6 1009.8
12 18.03 ЮЗ 7 20 км позёмок {снег} 10/0
[Ac As Cs]
-6.9 -8.0 92 -16 -16 1009.9 1009.2
15 18.03 ЮЗ 8-10
{10}
20 км позёмок {снег} 9/4 200 м
[St Ac As]
-7.3 -8.1 94 -17 -17 1009.7 1009.0 -5.7 0.0
18 18.03 ЮЗ 7
{11}
2000 м снег {метель} 10/5 800 м
[Sc As trans]
-8.3 -9.4 92 -17 -17 1009.3 1008.6
21 18.03 ЮЗ 8
{11}
2000 м снег {метель} 10/0
[As op]
-6.7 -7.7 93 -16 -16 1009.0 1008.3
00 19.03 ЮЗ 5
{10}
2000 м снег {метель} 10/0 400 м
[As op]
-5.9 -6.8 93 -13 -13 1009.0 1008.2
03 19.03 С 6 20 км позёмок {снег} 9/9 870 м
[Sc]
-7.4 -8.5 92 -16 -16 1010.5 1009.8 -8.6 0.5 46
06 19.03 С 6 4000 м слаб. снег {метель} 10/0 330 м
[As op]
-6.8 -7.8 93 -15 -15 1012.8 1012.1
09 19.03 С 8 20 км позёмок {снег} 10/10 570 м
[Sc]
-9.6 -11.2 88 -19 -19 1015.5 1014.8
12 19.03 С 5 20 км {снег, метель} 10/10 330 м
[Sc]
-11.3 -12.6 90 -19 -19 1017.1 1016.3
15 19.03 СВ 3 20 км 10/10 270 м
[St]
-11.1 -12.4 90 -17 -17 1017.7 1017.0 -6.3 0.0
18 19.03 СВ 1 1000 м дымка 10/10 210 м
[St]
-10.4 -11.8 89 -13 -13 1017.4 1016.6
21 19.03 ЮВ 4 500 м переохл. туман 10/10 180 м
[St]
-8.6 -9.6 92 -16 -16 1016.2 1015.4
00 20.03 ЮВ 6 20 км {туман} 10/10 300 м
[Sc]
-7.8 -8.9 92 -16 -16 1013.9 1013.2
03 20.03 ЮВ 7 20 км позёмок 10/10 360 м
[Sc]
-7.5 -8.6 92 -16 -16 1011.9 1011.1 -11.1 48
06 20.03 ЮВ 9-11
{13}
500 м сильн. снег {метель} 10/0 400 м
[As op]
-6.9 -7.8 93 -17 -17 1009.4 1008.7
09 20.03 В 8
{11}
1000 м сильн. снег {метель} 10/0 420 м
[As op]
-6.5 -7.4 93 -16 -16 1007.0 1006.3
12 20.03 В 6
{11}
2000 м снег {метель} 10/0 630 м
[As op]
-7.0 -8.1 92 -15 -15 1005.2 1004.4
15 20.03 В 8 10 км слаб. снег {метель} 10/0 300 м
[As op]
-6.1 -7.0 93 -15 -15 1003.7 1003.0 -5.9 0.5
18 20.03 В 6 4000 м слаб. снег {метель} 10/0 450 м
[As op]
-5.6 -6.5 93 -14 -14 1002.9 1002.2
21 20.03 В 6 4000 м слаб. снег {метель} 10/0
[Ac As]
-6.6 -7.7 92 -15 -15 1002.5 1001.8
00 21.03 В 5
{10}
4000 м слаб. снег {метель} 10/0 330 м
[As op]
-5.8 -6.8 93 -13 -13 1002.6 1001.9
03 21.03 СВ 8-10
{10}
1000 м слаб. снег {метель} 10/0 480 м
[As op]
-6.6 -7.6 93 -16 -16 1003.3 1002.6 -7.8 0.2 49
06 21.03 СВ 7
{10}
10 км слаб. снег {метель} 10/0 400 м
[As op]
-6.5 -7.7 91 -15 -15 1003.9 1003.2
09 21.03 СВ 7 10 км слаб. снег {метель} 10/0 480 м
[As op]
-7.3 -8.7 90 -16 -16 1005.0 1004.3

 

Местоположение метеостанции Имени Попова (Ямало-Ненецкий АО, Россия): широта 73.33 долгота 70.05 высота над уровнем моря 6 м.

В архиве по умолчанию представлена погода в Имени Попова за последнюю неделю. Архивные данные за месяц целиком и за предыдущие месяцы, начиная с января 2011 года, Вы можете получить, выбрав интересующий диапазон дат из раскрывающегося списка и нажав кнопку "Ввод!".


*Определитесь, кто Вы:
робот инопланетянин человек

Внимание! Время в таблицах - всемирное. Для получения местного времени необходимо прибавить поправку, которая равна 5 ч.

Смотрите также архив погоды в соседних городах и на ближайших метеорологических станциях:

Погода в Тамбее (Ямало-Ненецкий АО, Россия) (214 км)
Погода на Острове Диксон (Красноярский край, Россия) (329 км)
Погода в Сеяхе (Ямало-Ненецкий АО, Россия) (362 км)
Погода в Гыде (Ямало-Ненецкий АО, Россия) (396 км)
Погода на Мысе Желания (Архангельская область, Россия) (405 км)
Погода в Марресале (Ямало-Ненецкий АО, Россия) (418 км)
Погода в Сопочной Карге (Красноярский край, Россия) (450 км)
Погода на Островах Известий ЦИК (Красноярский край, Россия) (477 км)
Погода в Усть-Каре (Ненецкий АО, Россия) (489 км)
Погода в Амдерме (Ненецкий АО, Россия) (493 км)

Пояснения к столбцам:

Ветер - указаны скорость ветра в м/с - средняя за 10 мин, порывы в срок и между сроками (в фигурных скобках) и направление, откуда дует ветер: С - северный, СВ - северо-восточный, В - восточный, ЮВ - юго-восточный, Ю - южный, ЮЗ - юго-западный, З - западный, СЗ - северо-западный.
Видимость - горизонтальная дальность видимости в метрах или километрах. При видимости от 1 до 10 км при отсутствии осадков обычно наблюдается дымка, при ухудшении видимости до 1 км и менее - туман. В сухую погоду видимость может ухудшаться дымом, пылью или мглою.
Явления - указаны атмосферные явления, наблюдавшиеся в срок или в последний час перед сроком; фигурными скобками обозначены явления, наблюдавшиеся между сроками (за 1-3 часа до срока); квадратными скобками обозначены град или гололедные отложения с указанием их диаметра в мм.
Облачность - указаны через наклонную черту общая и нижняя облачность в баллах и высота нижней границы облаков в метрах; квадратными скобками обозначены формы облаков: Ci - перистые, Cs - перисто-слоистые, Cc - перисто-кучевые, Ac - высококучевые, As - высокослоистые, Sc - слоисто-кучевые, Ns - слоисто-дождевые, Cu - кучевые, Cb - кучево-дождевые. Подробнее классификацию облаков см. в Атласе облаков (PDF).
T - Температура воздуха - температура, измеренная на высоте 2 м над землей.
Td - Температура точки росы - температура, при понижении до которой содержащийся в воздухе водяной пар достигнет насыщения.
f - Относительная влажность воздуха - влажноcть воздуха, измеренная на высоте 2 м над землей.
Te - Эффективная температура - температура, которую ощущает одетый по сезону человек в тени. Характеристика душности погоды. При расчете учитывается влияние влажности воздуха и скорости ветра на теплоощущения человека.
Tes - Эффективная температура на солнце - температура, которую ощущает человек, с поправкой на солнечный нагрев. Характеристика знойности погоды. Зависит от высоты солнца над горизонтом, облачности и скорости ветра. Ночью, в пасмурную погоду, а также при ветре 12 м/с и более поправка равна нулю.
P - Атмосферное давление - приведенное к уровню моря атмосферное давление.
Po - Атмосферное давление - измеренное на уровне метеостанции атмосферное давление.
Tmin - Минимальная температура - минимум температуры воздуха на высоте 2 м над землей.
Tmax - Максимальная температура - максимум температуры воздуха на высоте 2 м над землей.
R - Количество осадков - Количество выпавших осадков за период времени, мм. При наведении курсора мыши на число - период времени, за который выпало указанное количество осадков.
R24 - Количество осадков - Количество выпавших осадков за 24 часа, мм.
S - Снежный покров - Высота снежного покрова, см. При наведении курсора мыши на число - состояние снежного покрова и степень покрытия местности в баллах.